Theta_e
314 315 319 320 320 321 320 321 321 320 319 316 316 318 316 317 317 317 318 317 317 319 317 315 316 319 319 319 321 319 319 321 322 320 322 324 328 333 335 336 336 335 336 336 335 335 335 334 334 334 333 331 330 331 332 333 332 332 333 333 334 333 333 333 333 332 331 330 329 326 322 319 320 321 322 321 320 318 315 313 312 310 307 306 307 308 311 318 323 325 326 325 323 317 308 306 307
314 317 320 320 320 322 321 321 321 318 317 315 316 318 316 316 317 319 318 317 320 320 317 316 317 319 319 320 320 320 322 323 322 325 325 325 330 332 334 337 335 336 336 336 336 336 336 334 334 334 333 330 329 330 332 332 330 331 333 333 333 332 332 333 333 332 331 331 329 326 322 321 321 321 321 320 319 317 314 312 312 310 306 307 311 314 318 321 324 326 326 325 324 318 308 306 308
316 319 320 320 320 322 322 321 319 315 314 314 315 317 316 317 318 318 317 319 321 317 317 318 319 320 320 321 319 321 326 324 321 324 326 329 333 332 335 337 336 337 336 337 337 336 336 335 334 334 332 329 328 329 331 331 329 331 333 333 332 332 332 332 332 332 331 329 327 324 322 322 322 320 320 318 318 317 314 311 311 309 306 311 317 319 322 324 326 326 326 324 322 316 308 307 308
318 321 321 322 322 322 322 322 319 315 314 313 315 317 317 318 318 317 319 321 320 316 318 319 320 320 319 321 320 321 326 326 322 325 329 333 334 333 335 336 336 337 336 337 337 336 336 335 334 334 331 328 327 327 327 326 326 330 332 332 331 331 332 332 332 331 331 328 326 324 323 323 322 320 319 318 319 318 314 311 310 308 305 314 321 322 324 326 327 326 325 322 315 310 307 308 307
320 322 321 323 323 322 322 320 319 316 315 315 315 317 317 318 317 318 320 320 318 315 317 319 321 321 320 321 320 323 325 325 322 323 330 332 332 333 335 336 335 336 336 337 337 336 336 336 334 333 331 326 326 325 325 324 323 325 327 328 327 329 331 331 331 331 330 327 325 324 324 324 323 320 319 321 322 319 314 310 309 307 305 313 321 323 325 327 326 325 324 320 314 312 312 310 308
321 321 320 322 321 320 320 319 317 316 316 317 317 317 317 317 318 320 320 319 317 315 316 318 320 321 322 321 319 322 323 324 323 322 327 329 330 332 335 335 335 335 336 337 337 336 336 335 333 333 331 326 326 325 325 325 324 323 323 324 324 325 328 329 330 330 329 326 325 325 325 325 323 320 320 322 323 320 315 310 308 306 305 310 319 322 325 327 327 326 323 320 317 315 312 309 308
320 321 320 320 320 320 321 318 317 318 316 316 317 317 317 317 318 320 319 319 317 315 316 317 318 320 322 321 320 320 320 321 322 322 324 327 329 331 334 334 335 336 336 336 336 336 336 336 334 333 331 327 327 327 327 327 326 325 324 323 322 322 325 327 327 328 327 326 326 325 326 326 324 320 321 323 323 321 316 311 307 305 304 306 317 322 324 326 324 322 319 316 315 311 307 307 307
320 320 320 321 321 320 320 318 318 318 315 314 315 315 317 317 317 320 319 318 317 316 317 317 317 318 318 320 322 321 318 318 319 320 322 325 327 330 333 334 336 336 336 337 337 337 336 336 335 333 332 330 329 329 329 329 328 326 325 323 322 321 322 325 326 327 326 326 326 325 326 326 325 322 322 323 322 321 317 311 307 304 303 304 313 320 322 323 321 318 315 312 310 307 307 307 306
319 320 320 322 321 320 319 318 317 317 315 314 314 314 315 316 315 318 319 317 315 316 319 318 317 317 318 319 322 321 318 317 317 318 320 321 324 329 332 334 337 336 335 337 337 337 336 335 335 334 333 331 330 330 331 330 329 328 327 325 323 322 322 324 325 325 325 326 326 325 326 326 325 323 322 323 322 321 318 313 307 304 303 303 307 313 317 318 316 313 310 308 306 306 306 306 305
319 319 321 322 319 319 317 317 318 317 316 315 315 314 314 314 314 316 318 318 316 316 319 318 316 316 318 320 321 320 318 317 317 318 318 318 320 326 331 335 337 334 335 337 336 337 337 336 335 334 333 332 331 332 332 332 331 330 329 327 324 323 323 324 325 325 326 326 326 326 326 326 325 324 323 323 322 321 320 315 309 305 303 303 303 305 307 308 308 306 306 306 306 306 306 305 305
320 319 320 321 318 317 316 316 318 317 315 314 315 314 314 314 313 315 315 316 315 317 318 317 317 317 318 320 320 317 316 316 317 318 318 317 318 324 332 336 337 335 335 336 336 336 336 336 335 335 334 333 332 333 334 333 332 331 330 328 326 324 323 325 324 324 326 325 325 327 326 326 325 324 323 323 322 321 321 317 311 308 306 304 303 303 303 304 304 305 305 305 305 305 305 305 305
320 320 320 319 317 317 317 317 317 317 316 315 316 314 314 313 313 315 315 316 315 317 318 317 318 318 318 320 319 316 315 316 316 317 318 318 318 325 332 335 336 336 336 336 336 336 336 336 336 336 334 334 334 334 335 334 333 331 330 329 327 325 324 325 324 324 324 324 326 328 327 326 325 325 324 323 323 321 321 320 314 311 310 308 307 306 305 305 305 304 304 304 304 304 304 304 304
320 322 321 318 318 319 318 318 317 317 316 315 316 314 313 313 314 316 315 316 316 317 318 317 317 317 318 318 318 316 316 316 316 317 318 319 321 326 331 333 333 334 335 335 336 336 336 337 337 337 335 335 335 335 335 335 333 332 331 330 328 326 326 327 325 325 324 325 327 328 327 325 325 325 324 324 323 322 322 322 317 313 313 312 311 310 310 309 308 307 306 306 306 306 306 307 308
319 321 321 319 316 318 318 318 316 316 316 316 315 313 313 313 314 315 315 316 316 317 317 316 316 316 318 317 317 316 315 316 315 316 318 320 322 326 330 332 332 332 333 333 334 335 335 337 338 337 336 335 336 336 336 335 334 333 333 331 329 326 327 327 326 326 325 326 327 327 327 325 325 325 325 324 323 322 322 323 321 315 314 315 314 314 313 313 312 312 311 311 311 311 312 312 312
317 319 321 319 316 317 317 318 317 316 317 316 314 313 312 313 313 313 314 316 316 316 315 315 315 316 317 317 317 316 315 315 315 316 318 320 322 325 328 331 333 332 332 332 333 334 335 336 337 338 337 337 336 336 336 335 335 334 334 332 330 328 327 327 326 326 325 325 326 327 327 325 325 325 325 324 323 323 322 323 323 318 316 317 317 317 316 316 316 316 316 316 315 315 315 315 315
317 319 321 320 317 317 317 317 317 316 317 316 314 313 313 313 313 313 313 315 315 315 315 315 315 316 316 316 316 315 315 316 315 315 317 319 322 325 326 328 332 332 332 333 332 334 335 336 337 337 337 337 336 336 336 336 336 335 334 333 331 330 328 328 326 326 326 326 326 326 326 325 325 325 325 324 324 324 323 324 324 321 318 318 319 319 319 318 318 318 318 318 317 317 317 317 317
317 319 320 318 317 317 317 317 317 316 317 316 313 312 314 315 313 313 314 313 314 314 314 315 315 315 315 315 315 315 315 315 315 315 315 318 322 325 326 326 327 331 334 333 333 333 333 335 336 336 337 337 337 337 336 337 337 335 335 334 333 332 329 329 328 327 328 327 326 325 326 326 325 325 325 325 324 324 324 324 325 324 321 319 320 320 320 319 319 320 319 319 318 318 318 318 318
317 320 319 317 318 318 318 318 317 317 317 315 313 313 315 315 313 313 314 314 314 314 314 314 315 315 315 315 314 315 315 315 316 315 314 316 320 322 325 326 323 327 333 333 333 334 333 334 334 335 337 337 337 337 336 336 337 335 335 335 334 333 331 330 330 329 329 328 328 326 327 327 326 326 325 325 325 325 325 325 325 325 323 321 321 321 320 320 320 320 320 320 319 319 319 319 319
317 320 317 317 320 317 316 317 316 316 317 316 313 313 315 315 314 314 315 315 314 314 315 314 314 315 315 315 315 315 315 315 315 315 315 315 316 318 321 324 321 322 330 333 332 332 332 332 332 334 335 336 336 337 337 336 336 335 335 335 335 334 333 332 331 331 330 329 329 328 328 328 327 326 326 326 325 325 325 325 325 325 325 323 322 321 321 321 321 321 321 321 320 320 320 319 319
316 317 317 318 318 316 314 315 315 314 315 315 314 312 313 314 314 314 315 316 315 316 317 315 315 316 315 316 315 315 315 315 315 315 315 314 315 316 317 320 319 318 324 328 325 325 327 329 330 332 333 334 335 336 337 335 335 335 335 335 335 335 334 333 332 332 332 331 329 329 329 329 328 326 325 326 325 325 325 326 326 325 326 325 323 322 322 322 322 322 322 321 321 320 320 320 319
315 315 317 316 314 315 314 312 313 313 313 314 314 312 313 314 313 314 315 315 316 316 317 316 316 316 316 316 315 315 315 315 315 314 315 315 315 316 316 318 317 315 318 320 320 320 321 325 327 327 327 329 332 334 335 333 332 332 332 334 335 335 335 334 333 332 333 332 330 329 329 329 329 327 325 325 326 326 325 326 326 326 326 326 324 323 323 323 322 323 322 321 321 320 320 320 320
315 314 314 313 312 315 313 311 312 313 313 313 313 313 314 314 313 314 315 316 317 317 317 316 316 316 316 315 315 315 315 315 314 315 314 314 314 315 316 316 315 315 316 317 321 322 320 322 328 330 327 325 328 332 332 329 332 334 331 330 331 332 333 334 334 333 333 333 330 330 329 329 329 328 326 326 327 327 326 326 326 326 325 326 325 325 325 324 324 323 323 322 321 321 320 320 321
315 314 312 311 312 314 313 312 313 313 313 313 314 314 314 313 314 314 314 316 317 317 316 316 316 315 315 315 315 315 315 315 315 315 315 314 314 314 314 314 314 314 316 317 319 320 318 321 329 333 332 328 326 329 329 326 333 337 331 331 332 330 331 332 333 333 334 334 332 331 330 329 329 329 327 326 327 327 326 326 327 327 326 326 326 326 326 325 324 324 324 323 323 322 321 321 321
316 315 313 311 311 312 313 312 312 313 313 314 313 314 313 314 315 313 313 315 316 316 316 315 315 316 315 315 315 315 315 315 315 315 315 315 314 314 313 313 314 314 315 316 316 316 317 320 324 327 329 328 326 326 328 325 330 335 331 334 337 334 331 330 331 333 332 333 332 332 331 331 330 330 329 327 327 327 327 327 327 328 326 326 327 326 326 326 325 324 324 324 324 323 322 322 321
316 315 313 312 311 312 312 312 312 312 312 313 312 314 314 313 313 312 313 315 315 315 315 315 315 315 315 315 315 315 315 315 315 315 314 315 314 314 314 313 314 314 314 314 315 315 316 317 318 320 320 322 321 321 325 324 325 328 327 333 337 335 332 328 329 331 331 331 331 332 331 331 331 331 330 328 327 327 328 328 328 328 327 326 326 327 326 326 325 325 325 324 324 324 322 322 322
315 314 313 313 312 312 312 311 312 312 312 312 313 314 313 312 312 313 315 315 316 315 315 315 315 316 315 316 316 315 315 315 315 315 314 315 314 314 314 313 313 313 314 314 314 314 314 315 315 317 316 316 317 317 319 321 322 322 323 331 336 335 334 330 330 333 331 331 332 332 331 330 330 331 330 329 328 328 329 329 329 329 328 327 327 327 326 325 325 325 325 324 324 324 323 322 322
313 313 313 314 313 312 312 312 312 312 312 312 314 314 313 312 312 315 317 316 316 316 315 315 315 316 316 315 315 315 315 315 315 315 314 314 314 314 314 314 314 313 314 313 313 313 313 314 314 314 314 314 314 315 315 317 320 319 321 330 335 335 335 332 332 334 331 330 332 332 331 330 329 330 331 330 329 329 330 330 329 329 328 327 327 327 326 325 325 325 324 323 323 324 323 322 321
313 313 315 315 314 314 313 314 313 313 313 312 313 314 313 311 312 316 317 315 316 316 315 316 315 315 315 315 315 315 315 315 315 314 314 315 314 315 314 314 314 313 313 313 313 313 313 314 314 314 314 313 313 314 314 315 317 318 319 325 328 329 330 328 327 329 328 328 329 329 331 331 329 329 330 330 330 330 329 330 329 328 328 327 327 327 326 325 325 324 324 323 323 323 322 322 321
314 314 316 316 315 315 314 314 313 314 314 313 313 314 315 314 314 316 316 315 315 315 315 315 315 316 315 315 315 315 315 315 315 315 315 315 314 314 314 314 314 313 313 313 313 313 313 313 314 314 314 313 313 313 313 313 314 315 315 318 320 320 321 321 322 323 324 326 326 326 329 331 329 327 328 329 330 330 329 329 329 329 328 327 327 326 326 325 325 324 323 323 322 322 322 321 320
315 314 315 316 316 316 314 312 312 313 314 313 313 315 316 317 317 317 316 315 315 315 315 315 315 316 315 315 315 315 316 316 315 316 315 315 315 314 314 314 313 313 313 313 313 313 313 313 313 314 313 312 312 312 312 312 312 312 312 313 315 316 318 321 323 324 325 328 328 327 326 329 330 328 328 329 329 330 330 328 329 329 328 326 326 326 325 324 324 324 323 322 321 320 321 320 318
315 314 315 316 316 315 314 312 312 314 314 312 314 314 317 318 318 316 315 315 315 314 315 315 315 316 315 315 316 316 316 316 316 316 315 315 315 314 315 314 313 313 313 313 313 313 312 312 313 313 312 312 312 312 312 312 312 312 312 312 313 315 319 323 326 328 331 331 331 330 328 327 329 329 329 329 328 329 328 328 329 329 327 326 326 325 324 324 324 324 323 321 320 320 320 319 317
314 313 315 316 314 315 315 311 311 314 313 312 314 316 317 318 318 316 315 315 314 314 315 315 316 316 316 315 315 316 316 316 316 316 316 315 315 315 315 314 314 313 313 313 313 312 312 312 312 313 312 312 312 313 312 313 313 312 312 312 312 313 318 326 330 331 332 332 331 330 328 325 326 328 328 328 327 327 327 329 330 328 326 326 326 324 324 325 324 323 321 319 319 320 319 318 317
315 314 315 316 315 316 315 311 309 311 312 312 313 315 317 317 316 315 314 315 314 314 315 315 316 316 316 316 316 316 316 316 316 316 316 316 315 315 315 315 314 314 314 313 313 312 312 311 312 312 312 312 312 312 313 313 313 313 313 312 312 313 317 325 332 331 330 331 330 329 326 322 323 325 327 326 326 327 328 329 329 328 328 328 326 325 325 325 324 321 319 318 319 320 319 319 317
315 315 315 315 314 314 314 313 310 309 311 314 313 314 316 317 317 315 314 314 313 313 314 315 316 316 316 316 316 316 316 317 317 317 317 316 316 315 315 315 314 314 314 313 313 313 312 311 311 312 312 312 312 313 313 313 313 313 313 312 313 315 318 322 326 328 330 330 330 329 324 322 325 326 325 325 324 327 329 329 329 328 328 327 326 325 325 324 323 320 318 318 319 319 319 318 317
314 315 315 314 314 313 314 315 312 310 311 313 314 314 315 316 317 317 316 315 313 312 314 314 315 315 316 317 317 317 317 317 318 318 317 317 316 316 315 314 314 314 314 314 314 313 312 311 311 312 312 312 313 313 313 313 313 312 313 312 312 317 322 324 323 323 325 326 326 325 321 324 329 327 325 325 324 326 328 329 329 328 327 327 325 325 324 323 321 319 319 319 318 318 318 318 317
315 316 315 314 314 314 315 314 311 310 313 314 315 315 315 316 316 317 317 315 313 312 313 313 314 316 317 317 318 318 318 318 319 318 318 317 317 316 315 315 314 314 314 314 313 313 312 311 311 312 312 312 313 313 313 313 313 313 313 312 312 316 321 323 322 321 322 322 323 324 324 327 328 326 326 327 325 325 326 327 327 326 326 326 325 323 322 320 320 320 320 319 318 317 317 317 316
316 316 315 315 315 314 315 314 310 309 313 315 315 315 316 316 316 317 317 315 313 313 313 313 314 315 316 317 318 318 318 319 319 319 319 318 317 316 315 315 314 314 314 314 314 313 312 311 311 311 312 312 312 313 313 312 313 313 313 313 313 314 317 322 323 323 323 323 324 327 328 327 325 325 327 328 326 325 324 324 323 325 325 324 323 321 320 320 321 320 320 319 318 318 316 315 314
314 314 315 316 315 315 315 313 309 309 312 315 315 314 315 315 315 317 317 315 315 314 314 314 315 315 316 317 317 317 318 318 318 318 318 318 318 317 316 315 315 314 314 314 314 313 312 312 311 311 311 311 312 312 312 313 313 313 313 313 314 314 318 324 325 325 325 323 325 328 328 325 324 325 327 326 326 324 323 323 322 324 324 322 320 319 320 321 321 320 319 318 317 317 316 314 311
314 315 315 315 315 315 313 311 309 309 312 315 315 313 314 315 315 316 317 316 316 316 315 315 316 315 315 316 317 317 317 318 318 318 318 318 318 317 317 316 315 315 314 314 314 313 313 312 311 311 311 311 312 312 312 313 312 313 313 313 315 316 320 324 325 324 323 322 325 327 326 325 324 325 325 325 325 323 322 324 324 323 323 321 319 319 321 321 320 319 319 319 317 315 314 312 309
315 315 315 315 316 315 312 312 310 309 311 313 313 313 314 315 314 316 316 316 315 315 315 315 314 315 315 316 316 316 317 317 317 317 318 318 317 318 317 317 316 315 315 314 314 314 313 313 312 311 311 311 311 312 312 312 312 313 313 314 316 319 322 324 325 324 323 321 323 323 323 325 324 324 324 324 324 322 321 322 322 322 322 321 320 319 321 320 319 319 319 319 316 312 311 309 307
315 315 315 316 317 315 313 312 312 311 310 310 312 314 315 316 316 317 317 315 314 314 314 314 315 315 316 315 316 316 316 316 316 317 316 317 317 317 317 316 316 315 315 315 314 314 313 313 313 312 311 310 311 311 312 312 312 312 312 314 318 321 324 325 325 324 323 322 322 322 324 325 323 322 323 323 323 322 322 322 322 323 323 322 321 320 320 319 319 320 318 315 312 308 307 307 306
315 315 316 315 315 315 314 313 314 314 314 311 312 313 315 317 316 317 317 315 315 316 315 315 315 316 316 315 316 316 316 316 316 316 316 316 316 316 316 315 315 315 315 315 314 314 313 313 312 312 311 310 310 311 311 312 312 312 313 314 318 321 323 325 326 323 322 322 323 324 324 323 322 322 322 322 322 322 323 323 323 323 321 320 320 319 318 319 319 317 313 310 308 306 304 304 304
315 315 314 314 314 315 315 315 314 314 314 312 311 313 314 315 315 316 317 316 316 317 317 317 316 316 316 315 316 316 316 316 316 316 315 316 316 316 316 315 315 314 314 314 314 313 313 312 312 312 310 310 310 311 311 312 311 312 314 314 317 320 323 325 324 322 322 324 325 325 324 323 322 321 321 322 322 322 322 323 322 321 320 319 319 318 318 318 315 311 307 306 305 303 302 302 301
315 314 312 312 314 315 315 315 315 315 315 313 313 315 315 315 316 316 316 316 316 317 317 318 318 317 317 316 316 315 315 315 314 315 315 315 316 316 316 315 315 314 313 313 313 312 312 311 312 311 310 310 310 310 311 311 311 312 313 315 317 319 321 322 321 322 323 324 324 324 324 324 322 320 321 322 322 322 322 321 321 319 318 318 317 317 317 314 308 304 303 303 302 301 301 300 299
315 311 310 311 313 315 315 315 316 315 314 314 315 315 314 315 317 315 316 316 317 318 317 318 320 318 316 316 315 315 315 315 315 315 316 316 316 316 316 315 314 312 312 312 312 312 311 311 311 311 310 310 310 310 311 311 311 311 313 316 318 318 320 321 321 322 322 321 323 324 323 323 321 320 321 321 321 321 320 320 318 317 317 316 315 314 312 307 303 301 301 300 299 299 299 298 297
312 309 310 312 313 313 314 315 316 314 314 316 317 315 313 314 317 315 314 316 318 319 318 319 320 318 316 316 316 316 316 316 316 316 317 317 318 317 316 315 314 312 311 311 311 311 311 311 311 311 310 309 309 310 310 311 311 311 314 318 319 319 320 322 321 321 320 320 322 323 322 322 320 321 320 320 320 319 318 318 316 316 315 314 311 308 305 302 301 300 299 298 297 297 297 297 296
310 312 314 314 313 313 314 314 314 315 316 316 317 316 313 313 315 317 316 316 319 320 318 318 319 317 316 316 317 317 316 317 317 317 318 318 318 318 317 316 315 313 312 311 310 310 310 310 310 310 310 309 309 310 310 310 311 312 314 317 318 318 319 321 320 319 320 321 322 322 321 321 320 320 320 319 318 317 317 316 315 315 313 309 305 303 302 301 299 298 297 297 297 296 297 297 296
311 316 317 315 314 314 315 315 315 316 316 315 314 315 315 313 314 316 317 315 315 317 318 319 320 318 316 316 317 317 316 317 317 317 317 317 318 318 317 317 316 315 314 312 311 310 310 310 310 310 309 309 309 309 309 310 311 312 314 317 317 316 317 319 319 319 320 321 321 321 320 320 319 318 318 317 317 316 315 315 315 315 310 304 302 301 300 299 298 297 297 297 297 296 296 296 296
313 316 315 314 314 314 315 316 316 316 316 312 310 313 314 314 315 315 315 315 315 315 316 317 319 318 316 316 316 316 316 317 317 317 317 318 318 318 317 317 316 316 315 313 312 311 311 310 310 310 309 309 309 309 309 309 311 313 315 317 316 315 315 317 319 319 320 319 319 320 320 319 318 318 317 316 316 316 314 315 315 311 304 300 300 299 298 297 297 297 297 297 296 296 296 296 296
314 315 315 314 314 314 315 315 312 313 314 310 308 312 315 315 316 316 315 316 316 316 315 315 316 316 316 316 316 316 316 316 317 317 317 317 318 317 317 317 316 315 315 313 312 312 311 311 310 310 309 309 309 309 308 309 311 312 313 313 313 313 316 318 319 319 319 319 319 320 320 319 318 317 317 316 315 314 314 315 312 305 300 299 299 298 297 296 296 296 296 296 296 295 295 295 295
314 316 315 314 314 315 314 313 312 313 314 310 308 312 316 316 316 315 314 314 315 316 315 315 315 315 316 316 315 315 315 315 316 317 317 317 317 317 316 316 316 315 314 313 313 312 312 311 310 310 310 309 309 309 308 309 310 312 313 311 311 315 318 318 317 318 318 319 319 320 319 318 317 316 315 315 314 314 315 312 305 300 299 299 297 297 296 296 296 296 296 295 295 295 295 295 294
314 314 314 315 315 313 312 312 312 311 313 312 311 313 316 316 316 315 314 313 314 314 314 313 314 316 317 316 316 314 313 314 315 316 317 316 316 316 316 316 316 315 315 314 313 313 312 311 311 310 310 309 309 308 308 309 310 311 312 311 312 316 317 317 316 317 318 318 319 319 318 316 315 314 314 313 314 315 313 306 300 298 298 297 296 296 295 296 296 295 295 295 295 295 294 294 294
313 313 314 313 313 313 312 311 309 309 312 313 313 314 314 314 315 315 314 315 315 313 313 313 314 316 316 317 317 314 313 314 315 316 317 316 316 316 315 316 315 315 315 314 313 313 312 311 310 310 309 309 309 308 308 309 310 311 311 311 313 315 316 316 317 318 318 318 318 318 316 315 314 314 313 313 314 314 308 301 298 298 297 296 296 295 295 296 295 295 295 295 294 294 294 294 294
313 313 314 313 312 313 313 312 312 312 314 314 314 314 314 313 315 315 314 315 315 314 314 314 315 316 315 316 316 314 314 316 315 316 317 316 316 316 316 316 315 315 315 314 313 312 312 311 310 310 309 309 309 308 308 309 310 310 310 311 313 314 315 316 317 318 318 317 317 316 315 314 314 314 313 313 314 310 303 298 298 297 296 296 295 295 295 295 295 294 294 294 294 294 294 294 294
312 313 314 313 314 315 313 313 314 315 315 315 315 315 313 314 315 315 315 316 315 315 315 315 315 316 315 315 315 315 315 316 316 317 317 317 317 317 316 316 316 316 315 314 313 312 311 311 310 310 309 309 309 309 308 309 310 309 310 312 313 315 316 317 317 317 317 317 316 315 314 313 313 314 313 313 312 306 299 297 297 296 296 295 295 295 295 294 294 294 294 294 293 293 293 294 293
310 311 312 312 314 315 314 313 313 314 315 314 315 315 315 316 317 316 316 317 317 317 317 317 316 316 315 315 315 315 316 316 317 317 317 317 316 316 316 316 316 315 315 314 313 312 311 311 310 310 309 309 309 309 308 309 309 310 310 312 314 316 317 317 317 317 317 316 315 313 312 312 312 313 313 313 309 302 297 297 297 296 295 295 294 294 294 294 294 293 293 293 293 293 293 293 293
311 313 313 312 313 313 313 314 312 313 315 314 315 316 316 317 318 317 316 317 317 318 318 319 317 315 315 315 314 315 316 316 317 317 317 316 315 315 315 316 316 316 315 314 313 313 312 311 311 310 310 309 309 309 308 308 309 310 311 312 314 316 316 316 316 317 316 315 313 313 312 311 311 311 312 310 306 299 297 297 296 295 295 294 294 294 294 293 293 293 293 293 292 293 293 293 292
314 313 314 314 314 313 314 315 312 312 314 315 315 317 317 318 319 317 316 318 318 317 317 318 317 315 315 315 314 314 315 316 317 317 316 315 315 316 317 317 317 317 316 316 315 314 313 312 312 311 310 310 309 309 308 307 308 310 311 313 315 315 316 316 316 316 315 314 313 312 312 311 310 310 310 307 303 298 297 296 296 295 294 294 294 293 293 293 293 293 292 292 292 292 292 293 292
Wind_Speed
6 8 9 9 9 8 5 1 1 3 1 1 2 1 3 1 2 2 3 3 2 3 3 2 7 9 4 1 1 2 2 2 2 2 1 9 18 17 15 15 15 15 14 13 12 12 11 11 12 12 10 10 10 11 11 11 11 11 10 10 10 10 10 10 10 10 10 10 11 13 14 14 14 13 13 12 12 12 11 10 10 10 11 11 11 11 11 12 14 15 15 15 14 15 18 20 21
8 9 10 9 7 5 3 0 1 1 1 1 2 0 3 2 2 4 4 2 2 5 6 5 9 9 3 1 1 1 2 3 0 2 6 16 19 16 15 15 15 15 13 13 12 12 11 11 12 12 10 10 10 11 12 11 12 12 11 10 10 10 9 9 9 9 9 10 11 12 13 14 14 14 13 13 12 12 11 10 10 11 11 12 13 13 13 14 15 16 16 16 14 15 18 20 21
9 10 9 8 5 4 3 0 1 0 1 1 2 2 3 4 5 4 3 3 6 10 10 9 9 6 3 2 3 2 1 3 4 8 12 19 15 14 16 15 17 15 13 13 12 12 11 11 11 11 10 9 10 11 11 12 14 13 12 11 10 10 9 8 8 8 8 9 10 11 12 13 13 13 13 12 12 12 12 11 10 11 12 13 14 14 15 16 16 16 16 16 15 16 18 20 21
10 10 9 7 4 4 2 1 1 1 1 1 1 4 4 4 5 5 6 7 11 12 8 8 6 5 5 3 2 2 1 3 9 13 14 16 13 16 17 17 18 16 15 14 12 13 12 11 10 11 10 9 9 9 10 11 13 13 12 11 11 10 9 8 7 7 7 8 9 10 11 11 12 12 12 12 12 13 13 11 10 11 12 14 15 15 16 16 17 16 16 16 16 17 18 19 21
10 9 8 5 2 2 1 1 1 2 1 1 0 5 5 4 6 7 9 10 10 7 4 5 2 4 5 3 3 2 2 5 11 16 15 15 16 18 18 18 19 17 17 15 13 13 12 11 10 10 9 10 9 8 9 9 10 10 10 10 10 9 9 8 7 7 6 7 9 10 10 10 10 11 11 12 12 13 13 12 11 12 12 14 15 16 17 17 17 17 16 17 17 17 18 19 20
9 7 6 5 3 2 1 1 1 0 3 1 1 5 6 5 7 10 11 8 5 0 2 4 2 4 3 3 5 3 6 8 10 16 16 16 17 18 18 19 18 18 17 16 14 12 12 11 10 10 9 10 10 9 9 8 8 8 8 8 9 8 8 7 7 6 6 7 8 9 9 9 9 10 11 12 12 13 13 12 12 12 12 14 15 16 17 18 18 17 17 17 17 17 17 18 19
10 6 5 6 5 2 1 1 0 1 2 2 2 4 6 7 9 12 10 7 4 3 3 4 4 4 2 3 4 7 11 11 13 15 16 17 17 17 18 19 17 17 17 17 15 13 13 11 11 10 10 10 10 9 9 8 8 8 7 8 8 7 7 7 6 6 6 6 7 8 8 8 8 10 10 11 12 13 13 13 12 12 12 13 15 16 17 17 17 17 17 17 16 17 17 17 18
9 5 3 3 2 2 0 1 1 1 1 1 3 1 4 7 9 10 10 6 3 4 4 5 7 3 2 4 2 9 11 12 15 14 17 17 17 17 17 19 16 16 17 16 15 14 14 12 11 11 10 10 9 8 8 8 7 8 8 7 7 6 6 6 6 6 6 6 6 7 7 7 7 9 10 10 12 13 13 13 12 12 11 12 14 16 16 16 17 17 17 17 17 17 17 17 18
7 4 3 2 1 1 1 0 1 1 1 1 2 2 3 6 9 8 8 5 2 3 4 6 7 2 4 6 2 8 10 12 14 14 17 16 17 17 17 18 15 16 17 16 15 14 14 13 13 11 11 9 8 7 6 6 7 7 7 7 6 6 5 5 6 6 5 5 5 5 6 6 5 7 9 10 12 13 14 14 13 12 11 12 13 14 15 16 17 17 17 17 17 17 17 17 18
4 3 4 2 1 1 1 1 1 1 1 1 2 3 5 8 8 7 7 5 4 3 5 9 6 1 4 5 3 8 11 12 14 14 16 16 18 18 17 16 14 16 17 15 16 16 15 14 13 12 12 11 9 8 6 6 7 7 6 6 6 6 5 5 6 5 5 4 4 4 5 5 5 6 8 9 11 12 13 13 13 13 13 12 13 14 15 16 17 17 17 17 16 16 16 17 17
3 3 4 2 2 2 1 2 2 1 2 1 3 5 6 10 8 5 6 4 5 4 5 9 5 2 5 3 4 8 12 13 13 15 15 16 18 18 18 15 14 16 15 15 16 16 15 14 13 12 13 12 10 9 7 7 7 7 6 6 6 6 5 5 6 5 6 5 4 4 5 4 4 6 7 9 10 11 12 13 13 13 13 13 14 15 15 16 16 17 16 16 16 16 16 17 17
2 2 3 2 2 1 1 2 3 2 1 2 4 7 8 11 8 6 7 4 5 6 6 9 4 4 5 2 5 9 12 13 14 15 15 16 18 20 20 18 17 16 16 16 15 16 16 14 13 12 13 12 12 10 9 8 8 7 6 7 7 7 6 6 6 5 5 5 5 5 4 4 4 5 6 8 9 9 10 12 12 13 13 14 15 15 16 16 16 16 16 16 16 16 17 17 17
1 2 3 2 0 0 1 1 2 1 2 4 5 8 11 11 9 7 7 5 5 6 6 11 6 3 3 1 5 10 12 14 14 15 15 16 18 20 21 21 20 19 19 19 17 17 17 16 14 14 14 13 12 11 10 10 9 8 7 7 8 8 7 7 6 5 5 5 5 5 4 3 3 4 5 6 8 8 9 10 11 12 13 13 14 15 15 16 16 16 16 16 16 16 17 17 17
3 3 1 2 1 0 2 1 3 3 3 5 5 9 13 9 9 8 6 6 7 7 6 12 10 3 4 3 5 11 14 14 15 15 15 16 18 20 22 22 21 22 22 20 20 18 18 17 15 15 14 14 13 12 11 11 10 9 8 8 8 9 8 8 7 6 6 6 6 5 4 2 2 3 4 5 6 7 8 9 10 11 12 13 13 14 14 15 16 16 16 16 16 16 16 17 17
7 5 2 3 2 2 3 1 2 5 3 7 7 11 13 8 9 9 8 7 6 9 6 8 12 4 2 4 4 10 14 15 16 16 16 16 18 21 22 23 23 23 23 21 22 20 20 19 16 16 15 15 14 13 13 12 12 11 10 10 10 10 9 9 8 7 7 7 6 6 4 3 3 2 3 3 5 5 6 7 8 10 11 12 13 13 14 15 15 15 15 15 15 15 16 17 17
9 6 2 2 3 2 3 2 2 4 3 6 9 12 10 7 9 9 9 8 4 10 9 6 12 7 2 4 3 6 12 15 17 17 17 17 18 20 21 22 24 24 23 22 23 22 21 19 17 17 16 16 15 14 14 14 14 13 11 12 11 10 11 10 9 9 8 7 7 6 5 4 3 3 2 2 3 4 5 5 6 8 9 11 12 12 13 13 14 14 15 14 14 14 15 16 17
9 4 2 3 3 3 5 6 4 2 3 6 10 13 9 6 9 9 8 10 6 8 11 9 12 12 7 6 5 5 9 14 17 18 19 19 19 21 21 21 23 24 24 24 24 23 22 21 19 18 16 16 17 16 15 14 15 14 12 13 12 11 12 11 10 11 9 8 7 6 6 5 4 4 3 2 3 4 4 4 5 6 7 9 11 11 11 12 12 13 14 14 13 13 14 15 16
6 3 3 3 3 3 5 8 6 0 2 8 11 14 10 6 9 9 6 8 9 8 11 12 12 14 13 9 7 6 7 12 16 18 20 21 21 22 22 22 22 24 25 25 26 24 23 21 20 19 17 16 16 16 16 14 14 14 12 13 14 13 13 12 12 11 11 10 8 7 6 6 5 5 5 4 4 4 4 4 4 5 6 7 9 10 10 10 11 12 12 12 13 12 13 14 15
2 1 3 3 2 2 2 6 5 1 1 8 11 13 11 5 8 10 7 6 7 8 9 13 14 14 16 14 11 9 8 10 15 18 20 21 22 23 24 24 22 23 25 25 26 25 24 22 21 21 20 19 17 15 16 16 15 14 13 14 14 14 14 13 13 12 12 11 10 9 8 7 7 7 7 6 5 5 5 5 4 5 5 6 7 9 9 9 9 10 11 11 11 11 12 13 13
1 1 4 2 2 1 1 5 5 2 1 6 9 12 9 4 8 10 7 4 5 10 11 11 14 16 17 17 15 14 12 11 14 18 20 21 22 23 24 24 24 23 24 24 23 24 24 23 23 23 23 22 21 19 19 19 17 15 16 16 16 15 15 15 14 14 14 13 12 11 9 9 8 8 8 8 7 7 6 6 5 6 6 6 7 8 9 9 8 9 9 10 10 10 11 12 12
1 1 1 2 2 1 3 7 6 2 1 6 8 9 8 5 10 10 6 5 7 12 15 14 14 15 15 16 16 16 15 14 15 17 20 21 22 23 23 23 24 22 21 22 22 22 23 22 22 22 23 22 23 23 22 20 18 18 19 18 17 17 17 16 16 15 15 15 14 12 12 10 10 10 9 9 9 8 7 8 7 8 8 8 8 8 9 9 8 9 8 9 9 9 10 11 10
3 1 2 3 2 1 4 7 8 3 2 6 7 7 7 7 9 11 9 9 7 8 14 16 14 14 14 14 14 15 16 16 16 17 19 21 22 23 23 23 23 21 20 21 21 21 21 21 20 20 21 21 22 24 23 19 18 20 21 20 20 19 18 18 18 17 17 16 15 14 13 12 11 11 10 11 10 9 9 8 9 9 9 9 9 8 7 8 7 8 7 7 8 8 8 9 9
2 1 1 2 2 2 4 6 7 6 5 7 8 7 7 7 7 10 15 16 11 8 10 10 11 12 13 14 15 16 16 15 16 16 17 19 21 22 23 23 22 21 21 21 21 21 21 20 21 22 23 23 22 23 23 21 22 22 20 20 21 20 19 20 19 19 18 17 16 15 15 14 13 12 12 12 12 11 10 10 11 10 11 11 11 9 7 8 7 7 7 6 6 5 6 7 8
0 3 4 3 3 2 3 4 6 8 7 6 8 8 7 8 6 7 17 24 20 17 15 12 11 11 11 13 15 16 16 15 15 15 17 18 20 21 21 22 22 21 21 21 20 21 21 21 22 24 25 25 24 23 24 25 26 24 21 19 20 20 20 21 20 19 20 20 19 18 17 15 13 13 13 14 13 12 12 12 12 12 12 12 12 10 7 7 8 8 7 5 3 3 5 6 6
2 4 4 3 3 2 4 5 6 7 6 7 8 7 5 7 6 6 18 26 22 21 20 18 18 16 15 15 15 15 16 16 15 16 17 19 20 21 22 22 22 22 22 21 21 20 20 21 22 24 25 25 25 24 26 28 28 26 24 22 21 23 24 24 20 19 20 20 21 20 19 17 15 15 15 15 14 13 13 13 14 15 13 13 13 11 8 8 8 9 9 6 3 4 5 4 4
3 4 6 4 3 3 5 5 6 5 5 7 6 4 3 6 5 9 21 26 23 22 22 21 20 20 20 19 18 18 17 18 17 17 18 19 21 22 23 23 23 22 22 22 22 21 21 20 21 22 23 23 23 24 26 28 28 26 27 26 24 26 27 25 22 22 21 20 21 21 19 19 18 17 17 16 15 13 13 15 18 19 17 15 14 11 9 8 8 10 10 7 4 5 5 3 3
6 7 8 5 4 4 4 4 4 4 4 5 5 2 2 3 2 8 13 15 17 19 21 22 22 22 22 21 21 21 20 20 19 19 20 21 22 24 24 24 23 23 23 22 22 22 22 21 21 21 21 21 21 22 23 25 26 26 28 29 27 27 27 25 25 27 24 22 23 22 21 21 19 19 19 17 15 14 15 18 21 22 20 17 15 13 10 9 8 10 9 6 5 6 5 5 4
7 8 7 6 4 3 2 2 3 2 2 2 2 1 3 1 3 11 10 8 11 12 15 18 19 21 21 21 22 22 22 22 21 22 22 22 23 23 24 23 23 23 22 22 22 22 22 22 21 21 21 21 21 21 22 22 23 25 27 30 30 29 29 28 27 28 26 24 24 23 23 23 18 17 18 18 17 17 17 19 21 22 22 20 18 16 11 10 11 10 8 6 6 7 6 6 4
6 6 3 2 1 2 2 1 1 2 1 3 2 3 7 7 12 18 14 14 14 14 16 17 18 20 19 20 20 21 22 22 23 24 23 23 23 23 23 23 23 23 22 22 22 22 22 22 22 21 21 21 21 22 22 22 23 24 25 27 29 30 29 26 25 25 24 23 22 20 21 22 18 18 21 21 19 17 17 18 19 22 25 23 21 19 14 12 12 9 9 8 8 8 7 6 4
6 3 1 1 2 3 2 1 1 2 2 4 3 5 6 9 17 20 16 17 17 17 19 20 21 21 21 21 21 22 22 23 23 23 24 23 23 23 23 23 23 23 23 23 23 23 23 23 23 23 22 21 21 21 22 22 24 24 23 24 26 26 24 21 20 21 24 25 23 20 20 21 21 21 22 22 20 18 17 18 19 24 28 26 22 20 16 13 11 9 9 9 10 10 9 8 6
2 1 0 0 2 1 4 2 1 3 3 6 4 6 6 5 9 11 14 18 17 19 20 21 23 22 22 23 22 23 22 23 23 23 23 23 23 23 23 24 24 25 25 24 24 23 23 24 25 24 23 22 22 21 21 22 23 23 23 23 24 23 21 20 19 20 23 25 25 23 21 22 22 20 20 20 20 20 20 19 21 25 28 24 20 19 16 13 12 11 9 10 11 12 11 9 7
2 2 2 1 2 1 3 2 1 1 2 6 5 5 7 7 5 4 10 14 15 18 20 21 23 22 22 22 22 23 22 22 22 23 23 22 23 24 24 25 25 26 25 25 24 23 24 25 26 25 24 23 22 22 22 22 22 22 22 23 23 22 22 21 18 18 20 22 24 24 22 22 22 22 22 21 19 18 19 20 21 24 23 21 19 18 15 13 12 12 10 10 12 13 13 10 8
1 2 1 2 2 1 1 2 1 2 1 5 7 5 4 3 3 3 5 7 9 13 17 18 19 20 20 21 22 23 23 23 23 23 23 22 23 24 24 25 26 26 26 25 24 23 24 26 27 27 25 24 23 23 22 22 22 21 22 23 23 22 23 24 23 21 21 22 25 25 23 23 23 23 23 21 19 18 18 18 18 20 20 21 22 18 15 15 14 13 11 12 13 14 14 10 9
2 1 1 1 2 2 1 2 2 1 0 5 7 7 10 7 5 6 7 9 10 11 17 20 21 22 22 22 23 24 24 24 23 21 20 20 22 23 24 25 26 27 26 26 25 24 25 26 27 28 27 26 25 24 23 23 22 22 22 23 23 21 21 24 26 27 26 24 26 26 25 26 26 24 23 23 21 20 19 19 21 22 22 23 23 19 17 17 16 13 12 15 17 15 14 10 9
3 3 2 1 2 3 4 1 2 2 2 5 7 9 15 15 13 15 19 20 18 17 21 25 27 29 29 28 28 27 28 27 25 23 21 20 21 22 24 26 27 28 27 27 25 24 25 27 28 29 28 27 26 24 24 24 23 23 23 23 23 22 23 23 24 26 28 27 28 28 27 28 27 24 23 24 23 21 20 20 22 25 25 23 21 20 18 18 17 13 13 17 19 17 13 10 11
4 3 2 1 3 4 3 1 1 2 3 7 10 12 15 15 14 17 20 20 19 20 23 27 31 32 32 32 32 31 32 32 30 28 26 24 24 23 24 26 27 28 28 28 27 25 26 28 29 30 29 28 27 25 24 25 24 23 23 23 22 23 24 24 21 21 24 25 26 29 28 26 23 20 21 25 25 24 22 20 19 21 25 23 21 19 17 18 16 14 16 18 19 19 16 14 13
5 3 2 2 3 5 1 3 2 1 4 8 9 11 16 16 14 17 19 15 15 18 20 26 32 34 34 34 35 35 35 34 31 30 29 28 27 26 26 27 28 29 29 29 29 27 27 29 30 31 30 29 28 26 25 25 25 24 23 22 22 22 23 23 21 20 22 24 24 26 25 22 18 16 18 22 23 22 21 20 18 20 22 20 17 16 14 16 18 16 19 20 18 19 19 18 14
3 2 2 1 3 6 1 4 1 2 3 7 5 8 15 15 15 18 17 13 15 20 20 24 29 31 34 37 38 38 37 36 33 32 32 30 30 29 28 29 30 31 31 31 30 29 28 29 31 32 30 29 28 26 26 26 25 25 23 21 19 19 20 23 22 21 22 23 23 22 22 19 16 16 19 19 19 18 18 19 21 21 21 18 14 14 15 19 21 21 22 22 20 19 19 19 17
2 2 1 2 2 4 2 3 2 3 4 6 4 7 13 14 16 19 21 17 19 27 27 27 26 25 32 38 40 40 39 38 36 35 34 32 32 31 30 30 31 32 32 32 31 30 29 30 31 32 31 30 29 27 27 27 26 25 23 20 18 17 19 22 22 22 21 21 22 22 19 18 18 18 19 20 18 16 16 19 22 21 22 21 18 17 19 21 22 22 22 22 21 20 20 19 19
3 2 3 3 1 2 3 1 3 4 3 5 6 9 11 12 14 19 23 19 20 30 32 31 32 32 37 42 41 41 41 41 40 38 37 35 34 33 32 32 32 32 33 34 33 31 31 31 31 32 32 31 30 29 28 27 26 24 21 19 17 17 20 23 23 23 23 23 25 23 20 18 19 18 19 21 20 18 18 20 21 21 24 24 20 20 23 23 21 22 24 22 20 20 21 21 19
3 5 6 4 3 4 3 3 2 4 3 2 6 10 8 9 12 13 11 8 14 24 23 24 32 34 36 38 38 37 38 39 38 38 37 36 35 33 33 32 32 33 34 34 34 33 33 32 32 32 32 32 32 30 29 27 26 24 22 21 21 21 25 28 28 27 26 25 25 24 21 20 19 18 19 20 20 18 18 19 20 23 25 24 21 22 24 24 24 25 24 22 19 17 17 20 21
3 6 9 9 7 4 2 3 5 4 2 1 3 8 4 4 7 8 4 3 10 14 12 18 29 30 30 32 34 34 34 33 33 33 34 33 31 30 31 31 32 33 33 34 34 34 34 34 33 33 32 32 32 31 29 28 27 26 24 23 24 26 29 32 30 28 26 25 24 24 24 22 20 20 21 22 20 18 19 20 22 23 22 22 22 22 22 23 26 26 22 20 19 15 14 17 20
3 3 6 9 5 1 2 0 2 4 3 1 1 5 7 3 7 10 7 8 14 12 10 18 27 28 29 31 34 34 33 32 31 30 29 28 27 27 28 28 29 30 31 33 34 34 35 35 35 34 32 32 31 30 29 28 27 26 24 22 23 26 30 32 30 25 23 24 25 26 25 23 22 22 22 23 22 21 21 22 24 23 22 22 23 22 23 24 25 24 22 20 18 16 14 16 18
1 1 1 5 5 4 4 2 3 4 5 2 4 3 8 7 7 9 8 10 15 13 11 16 21 25 27 27 27 26 25 24 23 22 21 21 22 22 23 23 23 25 27 30 31 33 34 35 35 33 31 31 30 30 29 28 27 26 25 24 24 26 29 30 28 25 23 23 26 27 26 25 23 23 23 25 25 23 23 24 24 24 23 23 24 24 24 25 25 24 23 21 19 17 16 15 14
1 1 1 4 4 3 4 2 3 1 5 5 5 6 6 7 3 3 3 7 11 12 11 12 14 18 21 18 18 17 15 13 13 13 13 14 14 14 15 17 18 21 24 26 28 30 32 33 33 32 31 31 30 30 29 28 27 26 26 27 27 27 27 28 27 25 25 25 27 29 28 26 24 24 25 26 26 24 24 24 24 24 25 25 25 26 25 25 25 24 23 22 20 18 17 15 13
3 5 5 6 5 4 4 1 1 1 5 5 7 9 6 7 3 5 2 5 8 8 7 7 9 14 15 12 12 10 8 7 7 7 7 7 7 8 9 12 14 18 21 23 25 27 29 31 31 31 31 31 30 30 29 28 28 27 27 28 29 28 27 27 26 25 26 28 30 30 28 27 26 26 26 27 26 25 24 24 24 24 26 26 26 25 26 26 25 23 22 21 19 18 17 15 13
10 8 5 6 4 3 2 0 1 2 6 3 8 12 7 6 3 6 4 2 3 4 4 5 7 10 9 6 7 5 4 4 3 2 1 0 2 3 5 8 11 15 18 21 23 26 28 29 29 30 31 31 30 30 29 29 29 28 27 28 29 30 30 29 27 25 27 30 31 30 29 28 27 26 26 26 25 25 25 25 24 25 26 27 26 26 26 26 24 23 21 20 18 17 15 14 14
6 3 3 3 1 1 1 1 2 5 7 1 3 6 6 7 5 3 2 2 2 4 4 4 4 7 8 5 5 3 2 4 4 3 2 3 2 2 4 6 9 12 16 19 22 25 27 28 28 29 31 31 30 30 29 29 29 29 28 29 30 31 32 32 28 26 28 29 29 29 30 29 27 27 26 25 25 26 26 27 26 26 26 27 27 27 26 25 24 23 21 20 19 17 16 14 14
2 3 5 4 3 2 3 3 3 5 5 1 1 2 4 10 8 5 8 8 8 7 8 10 10 14 16 11 9 8 4 4 4 3 2 2 3 4 5 7 9 12 14 17 21 23 25 27 28 29 30 31 30 30 29 29 29 29 30 32 33 32 31 31 28 27 28 27 28 30 31 29 28 28 26 25 26 27 28 29 29 28 28 28 28 27 26 25 24 23 21 20 19 18 17 15 14
7 7 7 6 5 4 5 4 1 5 3 3 4 3 5 9 7 10 16 16 14 12 15 20 20 22 24 20 17 17 14 11 8 6 5 4 4 5 7 8 10 12 14 17 20 21 23 25 27 29 30 31 31 30 29 29 29 30 31 32 33 32 30 29 29 28 27 27 28 29 29 29 28 27 27 27 28 29 31 31 30 30 29 29 28 27 27 26 24 23 22 21 20 19 18 17 16
8 4 3 5 5 5 5 3 2 4 2 2 4 3 5 5 1 4 10 11 15 20 24 27 26 28 30 29 27 26 24 20 13 11 9 6 5 5 6 8 9 12 14 17 19 20 21 23 26 28 30 30 30 31 30 29 30 31 32 32 31 31 29 28 29 28 28 29 29 29 29 28 26 26 27 28 29 32 33 32 31 31 30 29 29 28 28 27 26 25 24 23 21 20 20 19 18
3 1 1 5 4 2 1 1 1 1 3 2 4 4 6 3 3 4 5 6 11 18 22 24 28 34 35 36 36 31 27 23 18 14 10 6 5 5 6 7 8 11 13 16 18 18 19 21 24 27 28 29 29 30 30 29 30 30 31 32 32 31 29 28 29 28 28 31 30 29 28 25 24 25 26 29 32 34 34 34 33 32 31 30 30 29 29 28 27 26 26 24 23 22 21 20 19
4 3 4 3 1 1 1 1 2 2 5 5 4 6 6 3 6 8 7 7 8 8 11 15 26 33 33 36 36 27 21 19 17 12 7 4 3 3 5 5 6 9 11 13 15 16 18 19 22 25 27 28 28 29 30 29 30 31 31 32 32 31 30 28 28 27 28 30 31 30 27 23 24 24 26 30 34 35 35 35 35 33 32 31 31 30 30 29 28 28 27 26 25 24 23 22 20
4 5 6 3 2 1 2 4 1 3 7 5 3 8 7 5 5 2 4 8 10 9 10 12 20 26 30 34 31 22 17 15 12 9 5 4 4 3 3 2 3 6 8 10 12 14 16 19 21 22 24 27 26 27 29 29 30 32 32 33 32 32 31 29 27 26 27 30 31 30 26 24 24 25 26 32 35 36 37 37 35 34 33 32 32 31 31 30 30 29 28 27 26 26 24 23 21
1 2 4 3 2 4 4 4 4 5 6 4 3 6 6 7 7 3 5 9 11 11 12 12 15 20 25 30 27 20 17 13 9 9 9 7 6 6 5 3 1 3 6 8 10 13 16 18 20 21 22 25 25 26 29 30 31 32 32 33 33 33 32 31 29 28 28 30 30 28 25 24 25 27 29 32 36 38 38 37 36 35 34 33 33 32 32 32 31 30 29 28 27 26 25 23 20
2 0 3 1 3 3 4 3 2 4 5 4 4 5 7 7 7 7 11 12 11 12 10 10 12 17 23 25 24 21 18 14 11 12 11 10 9 8 6 4 1 2 5 7 10 12 15 17 19 20 21 25 26 27 28 29 31 32 32 33 33 33 33 32 31 31 31 31 30 27 24 23 25 28 32 34 37 39 39 38 37 35 35 35 34 34 34 34 32 31 29 29 28 26 23 20 18
6 6 7 5 2 0 2 2 1 2 4 3 3 6 9 5 5 8 11 10 10 11 9 8 11 19 24 23 22 21 19 14 13 16 13 11 10 8 5 4 4 5 6 8 9 11 13 15 18 20 21 24 27 28 29 30 31 32 32 32 33 33 32 32 33 33 34 33 30 27 24 23 25 30 34 36 39 41 40 39 37 36 36 36 35 35 35 34 32 31 29 28 27 24 21 18 15
8 8 10 10 8 5 4 5 2 1 3 2 2 7 11 4 3 6 8 5 5 6 7 7 11 19 21 17 17 19 19 16 16 17 15 11 9 7 5 4 5 7 8 9 10 12 13 15 17 19 22 24 27 28 29 30 31 32 32 33 33 32 32 32 33 36 36 34 31 28 25 25 27 31 36 39 41 42 41 39 38 37 37 36 36 36 35 34 32 30 29 27 25 22 19 17 15
Wind_Direction
159 154 150 140 131 137 124 164 146 58 308 44 100 154 135 108 352 197 166 155 159 133 171 180 163 170 174 309 291 352 344 258 347 342 29 137 159 168 168 167 162 160 157 154 150 144 142 140 136 133 132 133 135 134 128 126 127 128 123 118 111 103 101 96 89 83 76 69 63 58 54 57 63 64 65 65 63 61 62 69 74 74 71 71 81 93 97 93 90 91 88 84 84 87 87 86 87
156 148 141 133 128 148 131 254 278 82 259 102 139 359 104 147 210 175 158 155 49 112 143 143 157 174 212 286 197 246 208 219 293 78 131 149 157 165 169 166 164 162 157 155 151 147 145 144 141 135 137 138 139 141 136 136 137 135 131 124 116 109 106 100 94 87 81 73 63 57 56 63 66 64 63 62 62 61 61 69 77 76 73 75 82 90 92 91 91 92 91 87 87 89 88 87 89
150 141 138 132 116 123 124 218 324 92 321 67 128 119 128 174 175 138 112 93 95 124 132 134 154 176 221 231 206 245 181 205 177 130 138 146 151 168 167 166 165 160 158 157 155 155 151 152 146 137 141 140 144 149 145 144 144 141 138 133 125 122 116 105 99 92 84 73 61 56 60 67 65 60 58 59 63 62 61 70 79 79 77 80 85 89 90 92 93 95 98 100 99 92 88 89 90
145 139 138 133 123 108 106 324 24 299 344 43 101 138 170 178 146 100 105 115 118 125 128 145 159 187 226 258 213 245 143 178 164 139 142 150 156 170 167 167 167 161 161 158 159 162 156 156 150 143 144 141 146 151 150 148 148 146 142 139 134 131 124 114 105 95 86 71 62 63 68 71 65 59 59 63 66 63 62 72 82 81 80 83 85 88 90 92 93 96 98 101 100 94 91 92 92
145 141 144 145 165 94 85 89 101 283 19 45 43 141 177 164 132 118 131 135 127 117 129 173 171 178 219 231 190 254 155 164 163 151 155 163 161 167 169 170 170 166 162 156 162 166 159 157 150 148 148 140 139 137 138 139 145 148 145 141 137 133 128 122 114 103 92 75 68 73 77 75 68 62 66 68 66 63 65 75 83 83 84 84 86 89 92 93 94 95 96 98 97 95 93 92 92
147 138 137 128 101 89 148 145 144 259 41 345 21 133 165 152 139 136 144 156 158 144 156 204 223 164 182 192 202 199 159 158 163 162 163 165 164 166 169 171 172 169 162 157 163 167 163 158 152 151 151 144 136 130 126 127 129 134 137 138 140 136 131 129 122 110 95 82 78 82 84 80 71 65 69 68 63 61 65 76 85 87 89 89 89 92 93 94 98 99 100 101 99 98 94 92 90
145 128 125 123 82 41 236 72 92 114 67 333 6 116 152 146 145 144 155 178 207 247 220 225 204 173 164 165 196 177 166 162 164 169 169 168 169 171 170 170 172 170 164 161 162 169 168 162 159 156 157 154 147 142 134 130 123 122 124 129 141 142 136 132 122 111 98 89 86 87 86 83 72 67 69 66 62 60 63 73 82 87 93 96 94 94 95 97 104 108 109 107 103 101 96 91 86
146 133 141 146 66 11 265 92 94 56 74 303 320 69 137 145 155 158 170 186 196 205 220 211 188 209 156 142 160 174 172 167 169 171 173 173 175 175 172 170 171 172 168 166 166 170 172 170 169 161 162 164 156 153 142 135 128 127 126 128 140 144 142 131 119 111 103 98 93 87 85 85 74 67 66 64 62 60 63 70 78 83 90 97 96 96 98 101 106 108 108 105 101 98 94 89 85
146 135 138 151 118 85 110 115 112 77 133 200 258 223 164 163 169 178 182 193 204 181 202 188 191 251 145 155 168 177 182 176 172 173 177 180 179 179 176 172 173 176 172 171 171 169 175 180 177 166 167 170 164 161 151 139 136 134 130 134 142 146 147 131 125 119 111 110 101 92 90 92 79 67 63 61 61 61 65 71 77 82 86 90 93 94 95 98 103 102 101 98 97 94 91 87 84
140 128 124 125 166 165 147 185 140 140 163 171 241 199 182 177 178 197 193 201 211 196 201 191 199 263 160 168 168 182 190 181 176 177 181 185 183 181 178 175 177 180 176 176 176 173 181 186 181 174 173 173 172 171 166 158 150 146 139 142 145 152 154 138 137 131 129 132 121 112 106 105 89 71 65 61 62 64 68 73 78 84 87 88 88 89 90 92 96 97 97 96 94 91 88 85 81
130 124 132 148 180 200 198 184 172 147 128 196 224 186 185 180 177 195 202 218 212 208 200 195 200 190 185 181 182 189 188 185 182 180 182 183 183 181 179 178 180 184 182 183 183 179 184 187 184 184 183 177 177 179 178 177 167 160 156 155 152 157 157 146 148 147 150 154 142 127 115 112 96 77 68 64 63 66 72 75 79 83 86 88 88 88 89 90 93 94 94 94 92 88 85 82 78
148 129 167 192 190 218 218 185 173 150 166 211 178 172 185 178 180 196 202 217 199 203 203 199 197 175 187 175 196 191 183 189 186 184 184 180 181 181 181 183 182 184 185 189 190 185 187 189 188 191 193 185 183 186 186 187 183 175 169 170 164 161 163 157 155 157 160 161 152 140 128 114 95 81 71 66 64 67 73 76 79 82 83 85 87 88 89 89 90 91 91 91 89 87 84 81 78
175 154 200 185 115 358 149 172 154 147 212 202 162 167 179 175 194 204 194 209 193 198 207 202 199 196 201 154 201 195 186 192 189 185 185 181 181 183 186 188 187 186 187 192 193 191 191 192 192 195 198 195 192 193 193 194 193 183 178 182 173 165 168 166 164 168 166 163 161 153 140 118 96 84 74 66 63 66 71 77 80 83 84 83 85 87 88 89 89 89 89 89 88 87 85 82 81
157 142 202 148 97 146 152 136 157 205 203 164 147 166 175 179 206 207 191 208 203 200 208 205 204 216 213 182 195 201 194 191 192 189 185 185 183 186 190 191 192 191 193 195 197 198 195 193 195 199 201 200 198 199 199 200 201 192 186 190 181 174 175 176 175 179 177 172 173 168 157 141 118 94 81 66 63 67 71 79 83 87 89 86 86 87 89 89 88 89 88 88 88 88 87 85 83
151 124 75 123 137 167 187 252 169 216 193 147 161 170 176 192 205 205 211 218 211 208 211 207 206 210 208 191 174 200 202 192 193 192 188 189 187 191 194 194 195 195 197 198 200 203 201 198 198 201 201 203 203 203 203 204 209 202 192 193 190 186 184 187 190 193 191 185 185 183 178 172 155 118 96 73 70 73 74 83 88 92 96 96 95 94 94 94 93 92 91 89 89 88 89 87 85
151 123 87 150 160 191 193 206 170 214 182 144 165 168 176 205 204 202 216 220 218 215 215 206 206 211 207 196 171 189 203 197 194 194 193 193 191 195 198 198 200 198 198 200 203 207 208 203 201 202 201 206 205 204 209 210 210 204 200 199 195 195 194 195 198 201 203 197 195 188 184 183 173 153 130 103 92 90 87 91 96 99 103 105 105 102 99 98 97 96 94 91 89 89 89 89 86
150 142 189 180 182 199 181 179 174 194 162 145 164 174 181 196 202 207 214 213 216 220 220 221 217 219 218 200 194 189 200 202 198 196 197 197 195 198 201 202 202 199 199 202 204 208 212 208 205 203 200 209 208 205 210 213 211 203 203 203 197 203 203 201 203 207 210 205 205 195 186 185 185 182 169 161 139 124 120 114 114 112 109 111 109 106 103 99 99 96 93 91 88 88 89 88 85
157 176 207 199 186 181 177 183 177 105 166 164 173 184 191 187 189 201 209 207 219 232 230 232 230 225 223 214 207 205 205 209 208 204 202 201 201 202 203 205 204 198 198 203 205 208 212 213 213 207 202 207 207 209 212 211 210 205 210 211 202 205 207 205 207 210 212 211 212 200 189 189 193 198 190 187 179 159 154 145 137 133 122 119 115 111 107 102 100 95 93 91 88 87 88 88 83
131 146 213 210 167 140 168 183 166 11 231 160 169 185 197 203 180 192 210 198 205 230 235 233 236 232 228 226 221 220 221 219 217 215 210 206 208 210 208 209 210 202 198 203 208 209 212 215 218 217 214 211 206 207 211 211 210 209 218 219 208 208 209 208 209 212 214 213 213 204 199 199 200 209 205 198 198 188 181 170 155 153 143 134 128 121 116 111 106 101 97 94 93 94 92 89 83
84 187 222 202 111 81 153 177 151 44 336 155 162 181 196 214 181 189 215 203 199 228 231 225 233 235 233 234 231 231 235 232 226 222 219 214 212 216 217 215 218 214 204 205 210 209 209 215 220 223 223 220 214 210 211 214 215 214 218 221 217 216 214 211 213 217 218 215 215 213 207 205 207 214 213 208 205 204 198 185 174 174 166 153 147 137 128 123 117 110 104 100 100 101 101 95 87
124 203 255 71 117 127 142 176 166 77 61 158 155 170 194 206 190 191 202 216 222 232 234 232 238 240 240 242 239 239 242 241 233 226 224 222 218 219 222 222 225 224 212 208 213 210 208 216 221 224 224 221 219 219 219 218 223 226 225 225 224 222 221 218 217 222 224 217 216 219 213 209 214 218 219 215 206 208 208 195 190 188 181 170 160 152 140 134 129 118 111 107 104 102 104 101 95
117 34 9 74 141 103 128 177 188 178 126 154 158 170 194 192 197 203 203 225 235 235 240 241 246 248 250 249 243 242 244 245 240 232 228 226 224 223 224 227 228 229 222 215 216 217 215 216 219 223 225 223 220 223 224 216 219 228 230 232 230 229 228 224 222 223 224 219 217 222 221 216 217 221 224 221 207 206 215 206 200 196 188 181 169 167 154 143 137 123 116 108 101 99 100 100 98
133 70 115 128 86 64 130 173 193 187 165 164 177 192 195 188 210 218 217 231 238 241 248 247 249 248 250 250 244 244 243 245 243 240 236 231 230 229 227 229 230 230 229 225 221 222 222 219 217 219 224 228 225 223 223 215 210 218 227 230 228 230 232 229 224 221 222 223 223 224 225 225 222 220 222 227 216 206 218 216 208 201 195 190 177 174 169 154 143 127 118 100 91 97 105 102 96
216 120 145 153 74 58 132 160 179 175 183 187 191 199 195 199 222 229 231 238 239 244 251 251 253 249 249 250 248 248 248 248 246 242 240 238 236 234 234 232 232 232 232 234 229 226 226 224 223 223 226 232 232 227 225 222 216 215 220 219 218 224 234 236 229 226 227 227 228 226 224 225 225 223 220 226 224 216 224 222 214 210 203 199 187 176 173 169 156 143 132 112 97 106 116 106 92
50 118 143 145 92 105 125 133 154 161 187 189 186 198 201 219 242 255 247 247 247 249 252 253 255 255 254 254 251 249 248 249 248 244 239 239 238 236 236 234 234 235 235 238 238 235 233 231 230 231 233 235 237 234 228 227 225 219 215 216 224 230 238 242 234 230 232 232 233 232 230 225 223 227 227 226 225 223 226 226 222 218 213 208 196 178 169 177 172 161 156 154 151 129 119 105 93
67 111 134 137 114 124 129 135 146 154 167 172 183 191 215 241 265 264 254 254 256 254 252 253 253 254 255 256 255 252 250 251 250 248 243 240 238 237 236 235 235 236 238 240 241 241 240 238 236 233 233 231 231 231 228 227 228 224 214 213 224 230 236 239 230 223 228 235 233 233 237 233 226 224 228 232 231 223 224 232 228 219 217 214 202 185 173 181 180 166 162 162 161 147 134 112 101
103 113 111 98 103 118 134 149 151 163 151 170 205 193 243 259 265 257 251 250 254 253 252 252 252 252 253 253 254 254 254 254 251 247 244 239 238 238 237 237 237 237 239 240 240 241 240 239 236 232 230 226 224 226 227 226 226 226 216 212 218 222 227 230 226 223 227 232 228 232 239 235 231 227 225 230 230 224 227 233 227 217 213 212 206 196 186 188 177 162 162 166 178 178 159 131 111
107 125 116 74 78 118 139 160 160 188 149 152 204 251 256 198 222 244 241 241 248 251 252 252 253 253 253 252 250 251 253 253 251 247 244 241 239 240 240 240 240 241 242 243 244 244 242 238 235 232 229 226 225 226 228 229 228 227 221 220 222 225 229 231 230 229 229 226 227 237 238 226 224 231 229 225 224 224 227 230 230 223 217 212 207 198 192 191 175 163 171 180 185 181 158 139 128
101 121 141 87 112 166 145 165 206 220 184 122 114 266 239 201 230 244 243 249 253 255 258 257 257 257 256 254 251 251 251 250 249 248 247 244 242 241 241 241 242 243 245 246 247 247 245 240 236 233 231 229 228 227 229 231 233 233 229 226 227 232 234 232 229 228 225 221 223 233 232 224 225 237 235 227 228 230 225 228 235 232 222 214 206 198 195 188 174 173 185 186 184 180 169 159 153
107 84 321 150 204 206 121 70 214 206 196 137 140 271 241 204 230 243 246 251 255 258 260 260 260 261 260 259 258 257 255 252 250 249 247 245 244 241 239 239 240 241 242 245 247 247 245 241 237 235 233 233 231 230 229 229 233 235 235 232 231 233 229 223 223 225 226 220 215 220 227 232 235 236 230 225 232 236 230 230 239 236 222 211 203 198 196 185 180 195 204 200 193 190 187 174 161
98 71 284 152 244 168 99 75 168 205 191 152 175 263 260 232 230 239 249 252 254 258 260 263 264 264 262 260 260 259 258 256 254 251 248 245 244 242 239 238 237 239 241 245 248 247 244 239 236 235 234 233 230 229 229 230 232 233 236 237 236 232 219 216 221 222 225 220 214 217 225 234 233 229 229 233 240 240 235 233 236 233 218 207 203 199 197 192 192 203 218 220 202 190 186 171 162
43 235 172 113 254 168 96 88 145 241 165 163 197 255 266 270 263 255 262 256 252 257 262 267 268 267 264 261 259 259 259 257 255 252 249 244 243 241 238 238 237 240 244 248 250 248 244 238 235 235 233 232 230 230 232 233 233 232 235 237 238 230 214 211 216 215 218 219 218 220 227 231 228 227 232 238 239 231 228 230 229 223 212 207 208 201 197 202 206 211 226 226 207 194 185 171 166
68 270 227 143 227 279 64 96 72 346 65 191 223 265 273 276 292 278 266 256 253 260 267 271 273 272 270 266 263 261 261 259 256 253 250 246 244 242 240 239 240 242 246 250 252 248 243 238 235 234 232 231 232 234 235 235 235 234 235 237 238 231 217 209 210 216 220 221 220 224 233 231 222 225 231 234 228 215 216 221 214 209 211 211 206 199 200 209 219 225 220 209 209 203 187 177 177
146 253 251 199 228 263 248 118 96 58 286 225 226 251 258 259 277 273 268 274 274 267 270 276 278 277 275 273 270 266 264 261 256 253 254 252 248 246 244 242 242 244 246 249 250 247 243 239 234 232 230 231 233 235 236 236 236 234 235 236 233 229 225 219 217 223 226 226 225 229 238 232 221 221 229 232 220 209 212 213 207 204 207 208 202 197 203 212 220 223 212 201 203 200 186 185 192
166 184 196 220 213 228 253 239 131 160 222 235 226 242 257 260 262 265 267 270 272 270 272 276 276 276 276 274 270 267 265 261 258 258 260 259 255 250 246 245 244 245 247 248 248 245 241 238 234 231 230 232 234 235 236 237 237 235 234 234 230 224 225 226 226 228 230 231 231 235 239 232 223 220 228 229 213 206 210 207 208 206 199 200 200 198 207 218 217 212 214 204 192 191 191 195 200
133 152 184 199 229 245 241 154 114 199 238 243 239 249 262 264 263 266 266 264 264 267 271 272 272 273 273 272 270 266 263 260 260 263 263 260 258 254 249 246 245 246 247 247 247 244 240 237 235 232 232 234 236 236 236 238 238 237 234 232 229 222 221 223 225 226 227 228 232 236 232 223 221 223 228 224 207 203 208 204 211 208 196 197 203 208 215 218 213 207 211 201 188 189 191 193 202
107 124 178 176 255 270 211 104 85 199 255 253 241 254 268 271 271 269 268 265 261 258 259 262 266 268 269 269 268 266 264 262 261 263 263 260 258 255 250 246 244 244 244 244 244 242 239 237 236 235 235 237 239 238 238 238 239 240 238 234 230 224 218 216 218 222 224 229 236 232 218 211 221 221 212 209 199 196 205 210 216 211 201 200 210 222 226 217 208 203 199 194 193 196 192 193 200
108 168 210 198 238 264 275 91 114 166 235 262 247 258 268 271 274 272 268 261 259 256 251 255 261 264 267 268 268 266 266 265 263 262 261 260 259 255 253 249 246 245 243 243 243 241 240 238 237 238 238 238 240 240 238 238 239 239 240 238 232 227 218 211 216 224 227 233 230 213 203 209 217 204 195 200 198 197 209 216 215 213 212 216 225 228 223 214 204 195 193 192 196 201 202 199 189
137 162 210 238 234 275 291 90 100 176 218 269 278 271 268 270 275 273 265 256 258 261 258 259 262 264 265 266 267 267 267 266 265 263 261 260 259 257 256 253 250 248 246 244 243 242 241 240 240 239 239 239 239 238 237 237 236 235 237 234 228 225 217 213 219 221 224 230 217 205 213 217 206 201 207 210 208 213 221 216 210 214 219 222 228 222 207 203 199 194 200 204 200 200 206 202 184
197 177 204 234 174 275 261 112 118 174 215 297 299 284 269 261 264 265 262 256 258 264 264 264 265 263 264 265 266 266 266 267 267 265 263 261 260 259 258 257 255 251 247 245 244 243 241 241 241 240 239 239 238 237 236 235 234 233 231 225 222 219 214 218 221 218 222 229 223 223 229 215 199 205 216 217 218 221 220 215 215 221 220 215 220 221 207 202 205 204 207 212 209 202 199 195 184
208 207 217 231 219 222 248 348 342 204 195 307 294 286 266 235 244 255 261 256 260 265 265 266 265 264 265 266 266 265 265 267 268 268 267 265 263 261 260 259 256 252 250 249 248 245 244 242 241 241 239 238 238 237 236 234 233 230 224 217 214 214 216 220 220 218 224 228 229 229 221 206 203 210 216 220 223 219 217 221 220 215 208 204 212 220 213 208 210 210 208 206 208 208 201 193 188
221 216 218 230 237 227 224 2 336 278 237 135 299 295 276 190 227 251 260 264 265 262 256 265 269 269 267 267 269 270 269 268 268 267 267 268 268 265 262 258 255 253 252 251 249 246 245 243 243 242 238 236 236 236 235 233 232 230 224 217 214 213 214 215 217 221 227 229 228 220 208 205 211 214 217 222 220 216 219 219 211 208 207 208 214 215 209 208 207 205 203 198 200 208 210 201 195
240 215 216 227 231 203 205 182 287 284 300 214 193 291 285 242 222 242 252 263 268 264 255 264 268 269 268 269 273 275 275 274 270 267 266 267 268 265 263 259 256 255 253 250 249 246 245 243 243 242 238 236 235 234 234 231 230 228 223 219 220 218 215 215 220 226 228 228 221 209 206 212 217 216 218 219 213 210 216 215 210 215 222 219 213 206 202 206 203 196 193 192 195 199 204 206 201
222 54 189 193 179 190 200 186 225 281 327 268 173 194 278 274 226 229 240 257 270 268 262 264 264 268 273 276 280 281 281 280 277 273 270 266 264 263 262 261 259 255 252 250 248 246 245 244 244 243 239 236 234 233 232 230 228 224 220 217 217 219 221 223 224 222 220 220 216 211 214 220 220 217 216 216 211 207 215 219 214 216 219 213 204 197 198 202 197 189 186 187 192 194 195 203 206
357 56 96 137 150 166 154 169 225 310 328 277 171 157 260 278 205 180 221 242 262 264 258 261 264 274 283 289 293 292 289 287 282 278 274 268 263 260 257 255 254 250 247 247 247 247 247 246 246 244 240 236 233 232 231 228 225 220 218 217 215 218 223 223 221 219 219 219 219 217 216 219 219 215 212 211 208 208 214 216 214 212 209 204 197 192 194 196 192 188 186 185 187 189 189 193 204
133 140 98 91 87 80 102 216 196 115 282 260 166 170 250 283 199 152 169 227 249 258 257 261 273 284 292 303 309 307 304 302 295 287 282 273 261 250 244 242 241 241 242 243 243 244 246 247 247 245 241 237 232 230 229 225 220 216 214 215 216 218 217 215 216 221 223 220 217 215 215 218 217 212 209 207 205 206 208 208 210 208 202 197 193 189 190 193 192 190 188 186 184 185 187 190 196
140 144 105 92 85 72 86 34 82 227 262 237 164 182 225 283 223 172 174 198 231 244 255 263 276 284 290 314 325 336 8 360 358 353 336 246 222 233 240 241 238 237 238 238 238 239 242 245 245 243 240 237 231 229 228 224 218 215 213 213 216 219 217 217 221 223 221 216 214 215 216 215 212 208 207 206 205 204 203 205 207 203 198 195 191 189 190 192 192 190 187 186 185 186 191 194 192
147 149 131 127 137 138 158 157 143 233 248 238 172 193 219 248 233 191 236 293 261 238 249 265 276 276 275 295 303 300 34 22 30 46 60 84 62 325 272 257 246 240 239 237 236 237 239 241 242 240 239 236 231 228 227 224 219 214 214 216 220 223 221 222 226 223 217 217 219 218 214 209 206 206 207 210 211 207 203 205 205 201 197 192 189 190 192 193 191 188 186 186 186 188 194 198 194
209 164 160 198 217 193 228 209 179 237 239 115 140 183 243 251 253 271 274 270 254 235 238 255 267 270 272 275 274 270 277 304 320 329 342 26 358 310 284 268 255 248 244 241 240 239 239 241 241 239 239 235 230 228 227 224 219 214 214 217 221 224 223 224 227 224 221 224 225 219 212 209 209 211 215 219 216 211 207 204 203 199 194 190 191 193 193 193 191 188 188 189 188 189 192 196 197
196 182 175 196 197 209 234 207 201 265 255 109 140 164 246 267 268 246 246 248 246 242 247 256 264 269 272 272 267 270 271 275 290 298 303 315 307 285 271 266 259 254 250 245 245 244 242 242 242 240 239 235 230 228 226 223 219 216 216 219 219 221 223 223 225 226 228 227 223 220 217 215 218 222 226 225 219 212 207 203 199 195 192 192 194 195 193 193 192 190 190 191 190 190 191 194 196
194 188 179 201 195 210 230 212 234 269 302 136 159 172 227 251 343 238 247 259 254 250 252 256 261 263 267 270 269 268 267 267 275 286 292 295 287 270 255 257 257 255 253 250 249 249 245 244 244 242 241 238 231 228 227 223 220 218 219 219 215 215 219 220 221 227 231 226 222 222 220 218 224 230 232 227 218 209 204 200 197 193 194 196 196 195 194 193 193 193 193 193 192 191 191 193 195
190 91 209 230 220 201 246 304 236 329 328 239 191 230 240 235 304 263 251 269 254 248 250 254 257 256 258 265 267 266 266 268 269 273 285 286 276 259 243 247 254 255 256 255 255 255 251 249 246 244 244 240 233 229 228 225 221 220 219 216 212 212 216 217 221 226 227 224 221 219 217 220 228 233 233 224 211 205 202 198 194 194 196 198 197 195 195 195 194 194 195 194 193 192 193 194 195
158 168 201 225 335 73 178 247 80 111 266 256 211 249 267 279 274 241 216 236 242 241 247 246 248 250 252 256 259 262 269 271 264 260 269 264 244 237 228 232 246 255 259 258 260 261 258 255 251 247 245 242 235 230 228 225 222 221 218 213 209 211 214 218 222 223 223 223 219 214 214 222 228 231 228 216 207 204 202 196 195 197 198 198 198 197 196 197 197 196 196 195 194 194 195 195 195
136 187 187 138 24 352 214 237 220 200 247 262 224 249 268 274 269 212 170 229 241 242 242 239 243 248 249 250 254 262 269 268 255 236 216 191 176 167 179 204 248 262 265 262 261 259 255 254 252 249 247 245 238 232 228 226 224 222 217 211 209 211 214 218 221 219 221 223 215 210 215 224 227 228 222 212 208 205 200 197 198 199 199 199 199 198 198 200 199 198 197 196 196 197 196 195 194
69 187 158 134 220 206 186 215 227 225 240 255 248 261 263 240 238 228 203 220 232 238 235 233 239 242 244 248 253 259 260 255 234 202 180 166 151 139 137 135 214 262 268 262 255 253 251 249 250 250 247 246 242 235 230 227 225 222 217 212 211 214 217 220 219 218 219 217 211 211 217 224 228 227 219 213 211 206 200 200 201 201 201 201 200 200 200 201 201 199 198 198 199 199 197 195 194
25 137 168 196 259 215 186 186 216 233 237 256 278 284 262 225 205 218 226 224 224 227 226 228 235 239 245 250 251 249 249 242 208 182 176 171 162 153 143 130 108 289 278 267 257 255 254 251 250 248 244 243 240 235 232 229 224 220 215 213 214 218 222 221 219 218 214 208 208 214 220 225 229 227 221 217 212 207 203 203 203 202 203 202 201 202 203 203 201 199 199 200 200 199 197 196 195
175 193 188 186 183 340 258 207 143 243 237 248 278 279 269 241 163 198 223 226 223 224 227 227 239 248 251 252 249 244 241 227 192 180 185 185 174 156 122 74 15 337 310 291 278 269 262 256 253 249 243 241 238 235 232 230 225 219 214 213 216 221 222 219 218 215 207 205 210 216 222 228 230 226 222 217 212 208 206 206 205 205 204 204 204 204 204 204 201 199 200 201 201 199 196 194 194
184 195 193 193 179 159 212 208 159 271 245 227 240 270 273 262 138 201 221 220 221 222 230 233 240 247 251 256 254 245 235 216 188 185 190 182 163 135 94 49 7 343 323 308 296 287 276 266 259 252 246 242 239 236 233 230 226 220 215 214 217 219 217 215 215 210 204 207 213 217 224 229 227 224 221 217 212 209 208 208 208 207 206 206 206 206 206 204 201 201 201 201 200 198 195 193 194